Regional Weather Roundup
Issued by NWS

Home | Current Version | Previous Version | Graphics & Text | Print | Product List | Glossary On
Versions: 1 2 3 4 5 6 7 8 9 10 11 12 13 14 15 16 17 18 19 20 21 22 23 24 25 26 27 28 29 30 31 32 33 34 35 36 37 38 39 40 41 42 43 44 45 46 47 48 49 50
000
ASUS43 KLOT 281208
RWRIL

ILLINOIS REGIONAL WEATHER ROUNDUP
NATIONAL WEATHER SERVICE CHICAGO/ROMEOVILLE IL
700 AM CDT FRI APR 28 2017

NOTE: "FAIR" INDICATES FEW OR NO CLOUDS BELOW 12,000 FEET WITH NO
SIGNIFICANT WEATHER AND/OR OBSTRUCTIONS TO VISIBILITY.

* THESE STATIONS ARE NOT UNDER NWS QUALITY CONTROL. THEY ALSO MAY NOT
  REPORT WEATHER SUCH AS PRECIPITATION OR FOG.

ILZ001-002-007-009-015-016-024-281300-
NORTHWEST ILLINOIS

CITY           SKY/WX    TMP DP  RH WIND       PRES   REMARKS
MOLINE         CLEAR     39  36  89 E3        29.90S
6HR MIN TEMP:  37; 6HR MAX TEMP:  42;

STERLING*      SUNNY     38  35  89 CALM      29.92R
SAVANNA*       CLOUDY    37  33  87 E5        29.91R WCI  33
$$

ILZ003-004-008-010-011-017-018-281300-
NORTH CENTRAL ILLINOIS

CITY           SKY/WX    TMP DP  RH WIND       PRES   REMARKS
ROCKFORD       MOSUNNY   39  35  86 S5        29.94R
6HR MIN TEMP:  37; 6HR MAX TEMP:  42;

FREEPORT*      CLOUDY    36  31  83 SW3       29.93R
ROCHELLE*      SUNNY     37  37  97 CALM      29.93R FOG
DE KALB*       SUNNY     39  34  82 CALM      29.94R
PERU*          SUNNY     40  36  86 NE6       29.92S
$$

ILZ005-006-012>014-019>023-281300-
NORTHEAST ILLINOIS

CITY           SKY/WX    TMP DP  RH WIND       PRES   REMARKS
CHICAGO-OHARE  PTSUNNY   42  34  73 S5        29.93R
6HR MIN TEMP:  40; 6HR MAX TEMP:  43;

CHICAGO-MIDWAY PTSUNNY   45  37  73 S5        29.95R
6HR MIN TEMP:  42; 6HR MAX TEMP:  45;

AURORA         SUNNY     40  37  89 S3        29.94R
6HR MIN TEMP:  37; 6HR MAX TEMP:  41;

LANSING*       MOSUNNY   40  40 100 CALM      29.94R FOG
JOLIET*        SUNNY     43  41  91 CALM      29.94S
WAUKEGAN       CLOUDY    39  34  82 SW3       29.91R
6HR MIN TEMP:  37; 6HR MAX TEMP:  43;

DUPAGE AIRPORT SUNNY     40  38  93 S5        29.93R
6HR MIN TEMP:  37; 6HR MAX TEMP:  41;

KANKAKEE*      MOSUNNY   47  46  95 CALM      29.93S
WHEELING       CLOUDY    42  36  79 S5        29.94R
6HR MIN TEMP:  39; 6HR MAX TEMP:  43;

MORRIS*        MOSUNNY   41  37  86 CALM      29.93R
ROMEOVILLE*    MOSUNNY   41  40  97 CALM      29.93S
NORTHERLY ISL    N/A     45  35  68 S7          N/A
$$

LMZ740>746-281300-
SOUTHERN LAKE MICHIGAN

STATION/POSITION SKY/WX   TEMP    WIND        PRES    VSBY  WAVE
                          AIR SEA DIR/SP/G                  HT/PER
                          (F)     (DEG/KT/KT) (MB)    (MI)  (FT/S)
SOUTHERN BUOY              42 41  290/  6/  6 1012.8          2/ 4
HARRISON CRIB              45     290/  4/  5   N/A
BURNHAM HARBOR             45     200/  6/  9   N/A
CALUMET HARBOR             45     220/  3/  4 1013.3R
BURNS HARBOR               46        CALM     1014.6R
MICHIGAN CITY              46     200/  1/  1   N/A
MICHIGAN CITY 6N           45 46                N/A           1
ST. JOSEPH                 46 48  200/  4/  6 1014.7R         1/ 3
$$

ILZ025>027-034>036-040-047-049-050-058-095>099-281300-
WEST-CENTRAL ILLINOIS

CITY           SKY/WX    TMP DP  RH WIND       PRES   REMARKS
QUINCY         LGT RAIN  50  48  93 E8        29.82R FOG
GALESBURG*     PTCLDY    41  36  80 NE12      29.87S
MACOMB*        MOCLDY    44  43  97 NE12      29.87F
JACKSONVILLE*  LGT RAIN  50  48  94 SE6       29.84R
PITTSFIELD*    CLOUDY    51  50  96 E3        29.84R
$$

ILZ028>032-037-038-041>044-048-051>054-059>061-281300-
CENTRAL ILLINOIS

CITY           SKY/WX    TMP DP  RH WIND       PRES   REMARKS
PONTIAC        MOSUNNY   47  46  96 CALM      29.92S
BLOOMINGTON    CLOUDY    47  44  90 SE13      29.90
DECATUR        CLOUDY    49  48  97 SE12      29.89F
PEORIA         CLEAR     48  46  93 NE5       29.88S
6HR MIN TEMP:  44; 6HR MAX TEMP:  50;

LACON*         SUNNY     42  40  91 CALM      29.91R
LINCOLN*       PTSUNNY   50  48  95 CALM      29.87F
SPRINGFIELD    CLOUDY    51  48  89 SE8       29.85F
6HR MIN TEMP:  50; 6HR MAX TEMP:  52; 6HR PCP: TRACE;

TAYLORVILLE    CLOUDY    49  47  91 SE9       29.88R
6HR MIN TEMP:  48; 6HR MAX TEMP:  50;

$$

ILZ033-039-045-046-055>057-062-063-281300-
EAST-CENTRAL ILLINOIS

CITY           SKY/WX    TMP DP  RH WIND       PRES   REMARKS
CHAMPAIGN      CLOUDY    48  45  89 E9        29.89F
RANTOUL*       PTSUNNY   50  47  90 SE7       29.92F
MATTOON        CLOUDY    49  46  90 SE10      29.89F
PARIS*         CLOUDY    48  46  95 E10       29.92F
$$

ILZ079-100>102-281300-
SOUTHWEST ILLINOIS

CITY           SKY/WX    TMP DP  RH WIND       PRES   REMARKS
ALTON          CLOUDY    52  48  87 E7        29.86F
BELLEVILLE     MOCLDY    53  53 100 NE7       29.84F
CAHOKIA*       CLOUDY    55  49  80 E9        29.83F
SPARTA*        CLOUDY    54  50  87 SE8       29.87F
$$

ILZ064>066-069>071-074>076-080>082-084>086-088>090-092>094-281300-
SOUTH-CENTRAL ILLINOIS

CITY           SKY/WX    TMP DP  RH WIND       PRES   REMARKS
CARBONDALE     MOCLDY    53  51  93 SE9       29.88S
6HR MIN TEMP:  51; 6HR MAX TEMP:  54;

CAIRO*         CLOUDY    55  53  92 NE3       29.90R
EFFINGHAM*     CLOUDY    50  49  96 E7        29.91F
MARION         CLOUDY    54  54 100 SE9       29.88S
MT. VERNON     LGT RAIN  53  49  86 CALM      29.90R
CENTRALIA*     PTSUNNY   53  50  90 CALM      29.91R
SALEM*         PTSUNNY   52  49  87 S5        29.90R
METROPOLIS*    CLOUDY    55  51  87 CALM      29.92R FOG
$$

ILZ067-068-072-073-078-083-087-091-281300-
SOUTHEAST ILLINOIS

CITY           SKY/WX    TMP DP  RH WIND       PRES   REMARKS
LAWRENCEVILLE  CLOUDY    51  48  89 E7        29.93F
FLORA*         CLOUDY    52  49  89 SE5       29.93R
FAIRFIELD*     CLOUDY    52  49  89 CALM      29.90R
HARRISBURG*    MOSUNNY   53  50  91 E10       29.90S
ROBINSON*      CLOUDY    48  46  92 E8        29.93F
CARMI*         CLOUDY    52  49  90 CALM      29.93R
$$

ABBREVIATIONS USED IN REMARKS
   TC - TEMPERATURE IN CELSIUS
  WCI - WIND CHILL INDEX
   HX - HEAT INDEX
  VSB - VISIBILITY
$$





USA.gov is the U.S. government's official web portal to all federal, state and local government web resources and services.